CZ-3B DEB, 42472

Orbit data source: Space-Track

CZ-3B DEB, 42472 is space debris in HEO originally from a launch on Mon, 19 Dec 2011 UTC launched from the Xichang Space Center, China (XSC). Debris objects in space refer to the collection of defunct objects orbiting the Earth. Examples of debris include non-operational satellites, rocket bodies, and fragments generated from explosions, collisions, or faulty payload assembly.

Loading next visibility...
Identifier
42472, 2011-077AM
Orbit
HEO
Country
Flag of CNCN / PRC
Related business
Manufacturer
CALT
Mission
Spacecraft
Bus & Motor
Unknown
Mass
Unknown
Launch date (UTC)
2011-12-19 (14 years ago)
Launch vehicle
Unknown
Launch site
Xichang Space Center, China (XSC)
Object type
Payload
Rocket body
Debris
Shape & HBR
Unknown shape, 0.2 m
Radar Cross Section
Medium (>0.1 m² and <1 m²)

Expand to show TLE details & history
Last TLE update: 16 hours ago

TLE from 16 hours ago
0 CZ-3B DEB
1 42472U 11077AM  25293.58793647 -.00000169  00000-0  00000-0 0  9992
2 42472  26.0084 358.3882 7190266 172.1063 212.9444  1.79347324 70732
Epoch: 2025-10-20T14:06Z
TLE epoch observation values (Epoch: 2025-10-20T14:06:37.711Z)
Latitude
0.00002°
Longitude
117.44467°
Altitude
41,690.818 km
Speed
1.63 km/s
True Right ascension
23h 53m 33s
True Declination
0° 00' 00"
Sunlit
Object was in daylight at epoch
Visualization orbit readout
Latitude
Unknown
Longitude
Unknown
Altitude
Unknown
Speed
Unknown
Apparent Right ascension
Unknown
Apparent Declination
Unknown
Sunlit
N/A
Visualization observer readout
Local Sidereal Time
01:30:25
Azimuth
Unknown
Elevation
Unknown
Doppler factor
Unknown
Orbital elements
Apogee altitude
42,818.75 km
Perigee altitude
1,663.051 km
Semi-major axis
28,619.037 km
Eccentricity
0.71903
Inclination
26.0084°
RAAN
358.3882°
Arg. of periapsis
172.1063°
True anomaly
187.87196°
Mean anomaly
212.9444°
Eccentric anomaly
199.31676°
Mean motion
0.44829 °/min
Orbital period
803.05 mins
BSTAR
0
Loading maneuver chart data...
Computing Atmospheric mass density...
Loading historical data...
Loading historical data...
Loading historical data...
Loading historical data...
Loading historical data...
Loading historical data...
Loading historical data...

Documentation

Showing up to 5 results
|